Погода в Павлодаре

Погода в Павлодаре : погода сейчас, прогноз погоды и архив. Всё, что Вы хотите узнать о погоде в Павлодаре!

Поиск расширенной информации на нашем сайте:

Другие новости

Новости СМИ2

Главная страница сайта

Новости сайта

03.07.2017

Напоминаем, что на нашем специализированном сайте Метеоцентр.Азия вы можете получить высокодетализированные автоматические прогнозы погоды по пунктам России, СНГ и мира в авиационном формате (включающие направление и скорость ветра, видимость, явления погоды, количество и форму облачности, нижнюю и верхнюю границу облачности).

Рекомендуем: http://vengriya-opt.com.ua/ купить нижнее белье оптом.

Погода в Павлодаре - сегодня

Время (UTC), дата Ветер
(°,м/с) 
Видим.   Явления Облачность Т
(°С)
Тd
(°С)
f(%) Тe
(°С)
Pmin
(гПа)
dP
(гПа)
Po
(мм)
O2
(г/м3)
Тmin Tmax R s Состояние
почвы
12 11.10.18 190 (Ю) 20000 м    8/5 1000 м средняя 
[Sc|Ac trans]
+12.6 +2.8 51 +14  1017.3  -2.5  752  289           
15 11.10.18 180 (Ю) 20000 м    9/5 1000 м средняя 
[Sc|Ac trans]
+9.5 +2.7 62 +10  1016.1  -1.3  751  292    +15.8       
18 11.10.18 190 (Ю) 20000 м    3/0 верхняя 
[Ci fib]
+7.4 +2 69 +7  1014.3  -1.9  750  294    +15.8       
21 11.10.18 180 (Ю) 20000 м    3/0 верхняя 
[Ci fib]
+4.5 +1.5 81 +4  1012.2  -2.2  748  296           
00 12.10.18 180 (Ю) 20000 м    4/0 средняя, верхняя 
[Ac trans|Ci fib]
+5.3 +0.7 72 +4  1010.5  -1.7  747  295           
09 12.10.18 210 (ЮЗ) 8{16}  20000 м    10/8 600 м кучево-дожд., средняя 
[Cb cap|Ac und]
+17.5 +0.1 31 +17  1005.4  -2.2  744  281           
21 12.10.18 220 (ЮЗ) 10 км  слаб. ливневой дождь  10/9 600 м кучево-дожд., средняя 
[Cb cap|Ac und]
+7.5 +5.3 86 +6  1001.5  -1  740  289           
03 13.10.18 320 (СЗ) 20000 м    10/8 600 м кучево-дожд., средняя 
[Cb cap|Ac und]
+3.1 +1.6 90 +2  1003.9  0.4  742  295      0.4     
09 13.10.18 300 (СЗ) 20000 м    10/8 600 м кучево-дожд., средняя 
[Cb cap|Ac und]
+3.1 -0.4 78 +2  1006.9  744  296           
21 13.10.18 150 (ЮВ) 20000 м    ясно 
-4.1 -5 93 -4  1013.3  749  307           
00 14.10.18 120 (ЮВ) 20000 м    8/6 600 м кучево-дожд., средняя 
[Cb cap|Ac trans]
-0.9 -1.2 98 -2  1012.8  -0.3  748  303           
03 14.10.18 280 (З) 4000 м  слаб. ливневой снег  10/10 600 м кучево-дожд. 
[Cb cap]
-0.4 -1 96 -1  1014.4  1.6  749  303      равномерный
сухой снег
100% 
09 14.10.18 270 (З) 20000 м    8/6 600 м кучево-дожд., средняя 
[Cb cap|Ac trans]
+4 -2.9 61 +2  1020.5  2.4  754  300           
18 14.10.18 тихо ()   20000 м    ясно 
-4.1 -5.6 89 -4  1023.8  0.5  756  310    +5  0.7     
21 14.10.18 тихо ()   20000 м    ясно 
-5.3 -6.7 90 -5  1024  0.2  756  312           
00 15.10.18 170 (Ю) 20000 м    ясно 
-5.4 -6.8 90 -5  1023.9  -0.2  756  312           
06 15.10.18 140 (ЮВ) 20000 м    3/0 верхняя 
[Ci fib]
+6 -1.3 59 +5  1021.4  -1.5  755  298  -6.3         
09 15.10.18 140 (ЮВ) 20000 м    9/5 600 м кучево-дожд., средняя, верхняя 
[Cb cap|Ac trans|Ci fib]
+8.7 -2.6 45 +8  1018.6  -2.6  753  294           
12 15.10.18 100 (В) 20000 м    9/8 1000 м кучево-дожд., средняя 
[Cb cap|Ac trans]
+6.6 -1.8 55 +5  1017.4  -1.3  752  296           
21 15.10.18 090 (В) 10 км  слаб. ливневой дождь  10/10 600 м кучево-дожд. 
[Cb cap]
+2.5 -0.2 82 1011.7  -2.4  748  299           
03 16.10.18 090 (В) 20000 м  в посл. час ливневой дождь  9/8 600 м кучево-дожд., средняя 
[Cb cap|Ac und]
+2.8 +2 94 +2  1009.8  -0.4  746  297         
09 16.10.18 220 (ЮЗ) 10 км  слаб. ливневой дождь  10/9 600 м кучево-дожд., средняя 
[Cb cap|Ac und]
+5 +3.1 87 +3  1013.6  2.6  749  296           
21 16.10.18 180 (Ю) 20000 м    9/8 600 м кучево-дожд., средняя 
[Cb cap|Ac trans]
+0.5 -2.2 82 1019.6  0.4  753  303           
00 17.10.18 180 (Ю) 20000 м    6/5 1000 м кучево-дожд., средняя 
[Cb cap|Ac trans]
-0.8 -3 85 -2  1020.2  0.6  754  305           
09 17.10.18 310 (СЗ) 20000 м  {ливн. осадки}  10/8 600 м кучево-дожд., средняя 
[Cb cap|Ac und]
+0.3 -1.2 90 -3  1024.7  2.1  757  305           
Время (UTC), дата Ветер
(°,м/с) 
Видим.   Явления Облачность Т
(°С)
Тd
(°С)
f(%) Тe
(°С)
Pmin
(гПа)
dP
(гПа)
Po
(мм)
O2
(г/м3)
Тmin Tmax R s Состояние
почвы

Для получения пояснительной информации подведите курсор к названию столбца.

ПОГОДА в Павлодаре - архив

Всё, что Вы хотите узнать о погоде в Павлодаре - удобно и подробно!

Выберите нужную дату (начиная с 1 января 2015* года) и нажмите кнопку "Найти".
Будут отображены архивные сводки погоды по пункту Павлодар, начиная с указанной даты.


Отображать данные в формате CSV (для использования в таблицах Excel)


Внимание! Наш архив погоды предназначен исключительно для личного некоммерческого использования в познавательных целях. Если Вам необходимы официальные справки о состоянии погоды (для производственных, юридических, коммерческих и т.п. целей), обращайтесь в органы Росгидромета.

*Примечание: данная дата относится к архиву по метеостанциям СССР (Россия, СНГ, Балтия).
Архив по метеостанциям Зарубежной Европы и Азии (кроме Китая) хранится 10 дней, по другим регионам земного шара (Китай, Африка, Америка, Австралия, Океания) - 1 день.

Павлодар - район местоположения метеостанции


Название, широта, долгота, высота метеостанции:
Павлодар 52.1°ш. 77.1°д. 125 м над ур. моря [Казахстан]

Дополнительная информация

В oтличие oт бoльшинства пoгoдных сайтoв мы публикуем пoдрoбную метеoинфoрмацию в детальнoм прoфессиoнальнoм фoрмате.

Характеристики температуры и влажнoсти вoздуха измеряются на высoте 2 м в тени вдали oт зданий и деревьев.
Скoрoсть ветра измеряется на высoте 10 м (на урoвне рoста челoвека скoрoсть ветра ниже в 1.5-2 раза). Если метеoстанция нахoдится в гoрoде или в лесу, тo скoрoсть ветра занижена на 2-4 м/с пo сравнению с oткрытым местoм. Скoрoсть ветра над акватoриями крупных рек и oзёр, а также на вершинах хoлмoв на 2-5 м/с выше, чем в oбычных услoвиях.
Атмoсфернoе давление в разных тoчках местнoсти мoжет значительнo oтличаться oт давления на метеoстанции, в зависимoсти oт услoвий рельефа (при пoдъёме на 10 м давление пoнижается примернo на 1 мм рт.ст.).